EWG1UH EKCH-EDDL

Flight info

Callsign EWG1UH
Flight time N/A
Altitude 38000
Route NEXEN T503 GIMRU DCT MICOS DCT KEGAB DCT DENOL T851 HALME HALME1A
Aircraft A320/M-SDE3FGHIRWY/LB1

Departure

Time N/A
Airport Copenhagen Kastrup Airport (EKCH)

Arrival

Time 2026-05-01 07:59
Airport Düsseldorf Airport (EDDL)
Time Latitude Longitude Altitude Speed Heading
2026-05-01 07:33 52.22377 8.86278 36728 ft 449 kts 207°
2026-05-01 07:33 52.19567 8.84038 35985 ft 450 kts 207°
2026-05-01 07:33 52.13930 8.79572 34749 ft 448 kts 207°
2026-05-01 07:34 52.11135 8.77367 34198 ft 445 kts 207°
2026-05-01 07:34 52.05599 8.73007 33071 ft 439 kts 207°
2026-05-01 07:34 52.03001 8.70480 32540 ft 433 kts 218°
2026-05-01 07:35 52.00763 8.67252 32020 ft 428 kts 229°
2026-05-01 07:35 51.98954 8.63464 31509 ft 423 kts 240°
2026-05-01 07:35 51.97608 8.59271 31013 ft 417 kts 250°
2026-05-01 07:35 51.96745 8.54818 30520 ft 411 kts 260°
2026-05-01 07:36 51.96170 8.50289 29959 ft 409 kts 261°
2026-05-01 07:36 51.95596 8.45794 29419 ft 406 kts 260°
2026-05-01 07:36 51.95020 8.41328 28892 ft 403 kts 260°
2026-05-01 07:36 51.94446 8.36893 28392 ft 400 kts 260°
2026-05-01 07:37 51.93305 8.28125 27411 ft 395 kts 259°
2026-05-01 07:37 51.92738 8.23782 26943 ft 393 kts 259°
2026-05-01 07:37 51.92170 8.19464 26481 ft 391 kts 259°
2026-05-01 07:38 51.91604 8.15178 26029 ft 388 kts 259°
2026-05-01 07:38 51.91040 8.10912 25573 ft 386 kts 259°
2026-05-01 07:38 51.89923 8.02447 24688 ft 382 kts 259°
2026-05-01 07:39 51.89372 7.98311 24263 ft 380 kts 258°
2026-05-01 07:39 51.88807 7.94079 23800 ft 378 kts 258°
2026-05-01 07:39 51.87709 7.85799 22810 ft 374 kts 258°
2026-05-01 07:40 51.87160 7.81693 22347 ft 372 kts 258°
2026-05-01 07:40 51.86614 7.77666 21907 ft 370 kts 257°
2026-05-01 07:40 51.86061 7.73612 21465 ft 368 kts 257°
2026-05-01 07:40 51.85314 7.69667 21054 ft 365 kts 247°
2026-05-01 07:41 51.84251 7.65953 20633 ft 363 kts 243°
2026-05-01 07:41 51.83163 7.62283 20209 ft 361 kts 243°
2026-05-01 07:41 51.81002 7.54995 19400 ft 358 kts 243°
2026-05-01 07:42 51.79929 7.51383 19013 ft 356 kts 243°
2026-05-01 07:42 51.78856 7.47785 18623 ft 355 kts 243°
2026-05-01 07:42 51.77789 7.44207 18206 ft 353 kts 243°
2026-05-01 07:42 51.76730 7.40646 17791 ft 351 kts 243°
2026-05-01 07:43 51.75675 7.37106 17391 ft 349 kts 243°
2026-05-01 07:43 51.74623 7.33590 16999 ft 347 kts 242°
2026-05-01 07:43 51.72371 7.26777 16259 ft 341 kts 234°
2026-05-01 07:44 51.69738 7.20455 15534 ft 338 kts 233°
2026-05-01 07:44 51.67131 7.14205 14818 ft 334 kts 233°
2026-05-01 07:45 51.65842 7.11102 14494 ft 333 kts 233°
2026-05-01 07:45 51.64562 7.08008 14149 ft 331 kts 233°
2026-05-01 07:45 51.63285 7.04939 13780 ft 328 kts 231°
2026-05-01 07:45 51.61821 7.02167 13427 ft 323 kts 224°
2026-05-01 07:46 51.60295 6.99526 13052 ft 321 kts 223°
2026-05-01 07:46 51.58777 6.96910 12685 ft 319 kts 223°
2026-05-01 07:46 51.56276 6.92590 12062 ft 316 kts 223°
2026-05-01 07:47 51.54789 6.90012 11707 ft 314 kts 223°
2026-05-01 07:47 51.53327 6.87469 11542 ft 305 kts 223°
2026-05-01 07:47 51.51903 6.84981 11279 ft 301 kts 223°
2026-05-01 07:47 51.50496 6.82515 10965 ft 298 kts 223°
2026-05-01 07:48 51.47719 6.77626 10292 ft 295 kts 223°
2026-05-01 07:48 51.46345 6.75200 9930 ft 293 kts 223°
2026-05-01 07:48 51.44981 6.72791 9556 ft 291 kts 223°
2026-05-01 07:49 51.43622 6.70396 9178 ft 290 kts 223°
2026-05-01 07:49 51.40919 6.65659 8431 ft 286 kts 223°
2026-05-01 07:49 51.39574 6.63315 8058 ft 285 kts 223°
2026-05-01 07:50 51.38235 6.60995 7711 ft 283 kts 224°
2026-05-01 07:50 51.35570 6.56410 6986 ft 280 kts 223°
2026-05-01 07:50 51.34244 6.54142 6630 ft 278 kts 223°
2026-05-01 07:51 51.32926 6.51894 6306 ft 276 kts 223°
2026-05-01 07:51 51.31622 6.49660 5946 ft 273 kts 223°
2026-05-01 07:51 51.30202 6.47732 5678 ft 263 kts 210°
2026-05-01 07:52 51.26971 6.46486 5422 ft 230 kts 174°
2026-05-01 07:52 51.25398 6.46636 5204 ft 224 kts 173°
2026-05-01 07:52 51.23855 6.46813 4897 ft 221 kts 173°
2026-05-01 07:53 51.20827 6.47151 4359 ft 216 kts 173°
2026-05-01 07:53 51.19339 6.47319 4094 ft 211 kts 171°
2026-05-01 07:53 51.17933 6.47765 3951 ft 203 kts 160°
2026-05-01 07:53 51.16868 6.49063 3877 ft 193 kts 122°
2026-05-01 07:54 51.17304 6.53011 3630 ft 201 kts 59°
2026-05-01 07:55 51.19885 6.58329 2856 ft 199 kts 62°
2026-05-01 07:55 51.21489 6.61663 2314 ft 180 kts 61°
2026-05-01 07:56 51.23604 6.66074 1649 ft 151 kts 62°
2026-05-01 07:56 51.24833 6.68648 1251 ft 142 kts 61°
2026-05-01 07:57 51.25430 6.69899 1033 ft 144 kts 60°
2026-05-01 07:57 51.26629 6.72405 639 ft 143 kts 57°
2026-05-01 07:58 51.27828 6.74920 266 ft 142 kts 58°
2026-05-01 07:58 51.28881 6.77133 128 ft 86 kts 52°
2026-05-01 07:59 51.29253 6.77908 139 ft 18 kts 52°
2026-05-01 07:59 51.29276 6.78176 140 ft 16 kts 143°
2026-05-01 08:00 51.28976 6.78087 129 ft 13 kts 232°
2026-05-01 08:01 51.28903 6.77929 130 ft 0 kts 234°